Weather History for KHPN - November, 2012

Change the Weather History Date:

Wednesday, November 7, 2012

  Actual Average (KLGA) Record (KLGA)
Temperature  
Mean Temperature 34 °F 51 °F  
Max Temperature 39 °F 58 °F 69 °F (2004)
Min Temperature 30 °F 44 °F 32 °F (1962)
Degree Days  
Heating Degree Days 30 14  
Month to date heating degree days 92  
Since 1 July heating degree days 364  
Cooling Degree Days 0 0  
Month to date cooling degree days 0  
Year to date cooling degree days 1213  
Moisture  
Dew Point 26 °F    
Average Humidity 73    
Maximum Humidity 93    
Minimum Humidity 46    
Precipitation  
Precipitation 0.16 in 0.11 in 3.07 in (1963)
Month to date precipitation 0.79  
Year to date precipitation 38.55  
Snow  
Snow 0.00 in 0.00 in - ()
Month to date snowfall 0.0  
Since 1 July snowfall 0.0  
Snow Depth -    
Sea Level Pressure  
Sea Level Pressure 29.90 in    
Wind  
Wind Speed 13 mph (NNE)    
Max Wind Speed 25 mph    
Max Gust Speed 39 mph    
Visibility 6 miles    
Events Fog , Snow    
T = Trace of Precipitation, MM = Missing Value Source: NWS Daily Summary

Daily Weather History Graph

Daily Weather History Graph

Search for Another Location

Airport or City:

Trip Planner

Search our weather history database for the weather conditions in past years. The results will help you decide how hot, cold, wet, or windy it might be!

Date:

Astronomy

Nov. 07, 2012 Rise Set
Actual Time 6:33 AM EST 4:43 PM EST
Civil Twilight 6:04 AM EST 5:12 PM EST
Nautical Twilight 5:31 AM EST 5:44 PM EST
Astronomical Twilight 4:59 AM EST 6:17 PM EST
Moon No Moon Rise 12:54 PM EST (11/7)
Length of Visible Light 11h 07m
Length of Day
10h 09m
Last Quarter, 43% of the Moon is Illuminated
Nov 7
Last Quarter
Nov 13
New
Nov 20
First Quarter
Nov 28
Full
Dec 6
Last Quarter

Hourly Weather History & Observations

Time (EST) Temp. Windchill Dew Point Humidity Pressure Visibility Wind Dir Wind Speed Gust Speed Precip Events Conditions
12:56 AM 35.1 °F 28.6 °F 16.0 °F 46% 30.08 in 10.0 mi NNE 8.1 mph - N/A   Clear
1:56 AM 35.1 °F 28.6 °F 16.0 °F 46% 30.06 in 10.0 mi NE 8.1 mph 19.6 mph N/A   Clear
2:56 AM 34.0 °F 25.5 °F 19.9 °F 56% 30.02 in 10.0 mi NE 11.5 mph - N/A   Clear
3:51 AM 33.8 °F 24.8 °F 21.2 °F 60% 29.98 in 10.0 mi NNE 12.7 mph 19.6 mph N/A   Mostly Cloudy
3:56 AM 34.0 °F 25.5 °F 21.0 °F 59% 30.01 in 10.0 mi NNE 11.5 mph 20.7 mph N/A   Mostly Cloudy
4:40 AM 35.6 °F 27.5 °F 21.2 °F 56% 29.98 in 10.0 mi NNE 11.5 mph 23.0 mph N/A   Overcast
4:56 AM 35.1 °F 26.9 °F 23.0 °F 61% 29.99 in 10.0 mi NNE 11.5 mph 21.9 mph N/A   Overcast
5:56 AM 36.0 °F 27.5 °F 24.1 °F 62% 29.98 in 10.0 mi NNE 12.7 mph 21.9 mph N/A   Mostly Cloudy
6:56 AM 36.0 °F 28.0 °F 25.0 °F 64% 29.97 in 10.0 mi North 11.5 mph - N/A   Partly Cloudy
7:56 AM 37.0 °F 30.4 °F 25.0 °F 62% 29.97 in 10.0 mi NNE 9.2 mph 19.6 mph N/A   Overcast
8:56 AM 37.9 °F 30.5 °F 26.1 °F 62% 29.95 in 10.0 mi NNE 11.5 mph 20.7 mph N/A   Overcast
9:56 AM 39.0 °F 31.0 °F 26.1 °F 60% 29.92 in 10.0 mi NNE 13.8 mph 18.4 mph N/A   Overcast
10:56 AM 39.0 °F 32.3 °F 27.0 °F 62% 29.91 in 10.0 mi NNE 10.4 mph 23.0 mph 0.00 in   Unknown
11:56 AM 36.0 °F 25.0 °F 30.0 °F 79% 29.87 in 2.0 mi NNE 20.7 mph 25.3 mph 0.00 in Snow Light Snow
12:36 PM 33.8 °F 23.2 °F 30.2 °F 87% 29.84 in 1.0 mi North 17.3 mph 26.5 mph 0.02 in Snow Light Snow
12:56 PM 34.0 °F 24.6 °F 30.9 °F 89% 29.86 in 1.0 mi NNE 13.8 mph 24.2 mph 0.03 in Snow Light Snow
1:07 PM 33.8 °F 25.3 °F 30.2 °F 87% 29.84 in 0.5 mi North 11.5 mph - 0.01 in Snow Snow
1:56 PM 33.1 °F 23.4 °F 30.9 °F 92% 29.85 in 0.5 mi North 13.8 mph 24.2 mph 0.04 in Snow Snow
2:56 PM 33.1 °F 21.2 °F 30.9 °F 92% 29.84 in 0.8 mi NNW 20.7 mph 24.2 mph 0.03 in Snow Snow
3:56 PM 32.0 °F 20.5 °F 30.0 °F 92% 29.85 in 0.2 mi North 18.4 mph 25.3 mph 0.06 in Fog , Snow Snow
5:56 PM 30.2 °F 16.5 °F 28.4 °F 93% 29.82 in 0.5 mi North 24.2 mph 29.9 mph N/A Fog , Snow Snow
6:56 PM 30.2 °F 21.9 °F 28.4 °F 93% 29.80 in 0.2 mi North 9.2 mph 39.1 mph N/A Fog , Snow Snow
9:56 PM 30.2 °F 16.2 °F 28.4 °F 93% 29.75 in 0.5 mi North 25.3 mph 35.7 mph N/A Fog , Snow Snow
10:56 PM 30.2 °F 17.4 °F 26.6 °F 86% 29.74 in 0.5 mi North 20.7 mph 34.5 mph N/A Fog , Snow Snow
11:56 PM 30.2 °F 16.8 °F 26.6 °F 86% 29.74 in 1.0 mi North 23.0 mph 31.1 mph N/A Snow Light Snow